User: anonymous   Login
Location: ?ernice
(48.8383°N, 14.3803°E)
Time: 15:59:11
(UTC+00:00)
Language:

H-2A R/B - Orbit

View from above orbital plane
View from above orbital plane
View from above satellite
View from above satellite

Ground track
Ground track

The orbit data is extracted from the following two-line orbital elements,

1 39771U 14029F   24201.84853158  .00009125  00000-0  70136-3 0  9991
2 39771  98.1212 142.5980 0010628 345.0032  15.0875 15.01929824553690
Epoch (UTC): 19 July 2024 20:21:53
Eccentricity: 0.0010628
inclination: 98.1212°
perigee height: 553 km
apogee height: 568 km
right ascension of ascending node: 142.5980°
argument of perigee: 345.0032°
revolutions per day: 15.01929824
mean anomaly at epoch: 15.0875°
orbit number at epoch: 55369

The dashed part of the orbit path shows where the satellite is in the earth's shadow,  

DLR